Find Yaogan Weixing 28

NORAD ID: 41026 Int'l Des: 2015-064 Owner: ZZB Country: CN Constellation: yaogan operational
LEOCIRCULARRETROGRADESSO

リアルタイム位置

3D地球を読み込み中...

Yaogan Weixing 28について

説明を読み込み中...

次回通過

Passes for default location (London). Set your location on the main map for personalized predictions.

高度履歴

Loading altitude history...

軌道要素

1 41026U 15064A 26107.31496184 .00004343 00000-0 16816-3 0 9990
2 41026 97.2979 246.8856 0011797 52.2848 307.9458 15.26636817581398
Epoch: Apr 17, 2026 • Age: 11 hours

現在のステータス

高度 490.0 km
速度 7.62 km/s
衛星直下点 -17.99°S, 126.42°E
打ち上げ日 Nov 8, 2015
運用期間 10.4 years
タイプ military

技術仕様

分類 Payload
質量 3000.00 kg
乾燥質量 3000.00 kg
総質量 3000.00 kg
長さ 2.00 m
直径 2.00 m
スパン 8.00 m
形状 Box + 2 Pan
製造者 CAST
バスタイプ JB-11
フェーズステータス In Orbit
所有者/国 ZZB/CN

Most Searched